Fort Morgan, CO

1:08 PM MST on January 20, 2017 (GMT -0700)
Fort Morgan

Weather History for KFMM - January, 2013

Change the Weather History Date:

Wednesday, January 2, 2013

  Actual Average (KAKO) Record (KAKO)
Temperature  
Mean Temperature 23 °F -  
Max Temperature 33 °F 33 °F 72 °F (1997)
Min Temperature 13 °F 10 °F -16 °F (1942)
Degree Days  
Heating Degree Days 42    
Moisture  
Dew Point 13 °F    
Average Humidity 64    
Maximum Humidity 87    
Minimum Humidity 44    
Precipitation  
Precipitation 0.00 in - - ()
Sea Level Pressure  
Sea Level Pressure 30.18 in    
Wind  
Wind Speed 13 mph (NW)    
Max Wind Speed 28 mph    
Max Gust Speed 33 mph    
Visibility 10 miles    
Events      
Averages and records for this station are not official NWS values.
T = Trace of Precipitation, MM = Missing Value Source: NWS Daily Summary

Daily Weather History Graph

Daily Weather History Graph

Search for Another Location

Airport or City:

Trip Planner

Search our weather history database for the weather conditions in past years. The results will help you decide how hot, cold, wet, or windy it might be!

Date:

Astronomy

Jan. 02, 2013 Rise Set
Actual Time 7:18 AM MST 4:40 PM MST
Civil Twilight 6:47 AM MST 5:11 PM MST
Nautical Twilight 6:13 AM MST 5:45 PM MST
Astronomical Twilight 5:40 AM MST 6:18 PM MST
Moon 10:16 PM MST (1/2) 10:00 AM MST (1/2)
Length of Visible Light 10h 23m
Length of Day
9h 22m
Waning Gibbous, 74% of the Moon is Illuminated
Jan 2
Waning Gibbous
Jan 4
Last Quarter
Jan 11
New
Jan 18
First Quarter
Jan 26
Full

Hourly Weather History & Observations

Time (MST) Temp. Windchill Dew Point Humidity Pressure Visibility Wind Dir Wind Speed Gust Speed Precip Events Conditions
12:15 AM 16.7 °F 5.3 °F 10.4 °F 76% 30.13 in 10.0 mi West 9.2 mph - N/A   Overcast
12:35 AM 13.5 °F 4.4 °F 8.2 °F 80% 30.12 in 10.0 mi West 5.8 mph - N/A   Overcast
12:55 AM 13.3 °F 1.1 °F 9.9 °F 86% 30.12 in 10.0 mi West 9.2 mph - N/A   Mostly Cloudy
1:15 AM 18.5 °F 6.8 °F 15.3 °F 87% 30.12 in 10.0 mi West 10.4 mph - N/A   Overcast
1:35 AM 18.3 °F 4.6 °F 15.1 °F 87% 30.13 in 10.0 mi WNW 13.8 mph 19.6 mph N/A   Mostly Cloudy
1:55 AM 21.2 °F 10.9 °F 14.7 °F 76% 30.13 in 10.0 mi West 9.2 mph - N/A   Mostly Cloudy
2:35 AM 21.2 °F 11.7 °F 14.4 °F 75% 30.13 in 10.0 mi West 8.1 mph - N/A   Scattered Clouds
2:55 AM 17.6 °F 7.3 °F 12.7 °F 81% 30.13 in 10.0 mi WNW 8.1 mph - N/A   Mostly Cloudy
3:15 AM 20.3 °F 8.3 °F 14.0 °F 77% 30.13 in 10.0 mi WNW 11.5 mph - N/A   Overcast
3:35 AM 19.6 °F 8.9 °F 13.1 °F 76% 30.13 in 10.0 mi WNW 9.2 mph - N/A   Overcast
3:55 AM 19.9 °F 7.9 °F 13.1 °F 75% 30.13 in 10.0 mi WNW 11.5 mph - N/A   Overcast
4:15 AM 21.2 °F 10.9 °F 13.8 °F 73% 30.13 in 10.0 mi WNW 9.2 mph - N/A   Overcast
4:35 AM 21.2 °F 10.9 °F 14.0 °F 74% 30.12 in 10.0 mi West 9.2 mph - N/A   Overcast
4:55 AM 20.8 °F 9.7 °F 14.0 °F 75% 30.13 in 10.0 mi WNW 10.4 mph - N/A   Overcast
5:15 AM 23.9 °F 9.9 °F 14.7 °F 68% 30.13 in 10.0 mi NW 18.4 mph 24.2 mph N/A   Overcast
5:35 AM 24.4 °F 9.9 °F 14.0 °F 65% 30.14 in 10.0 mi NW 20.7 mph - N/A   Overcast
5:55 AM 24.6 °F 9.7 °F 13.6 °F 63% 30.14 in 10.0 mi NW 21.9 mph 27.6 mph N/A   Overcast
6:15 AM 23.9 °F 11.2 °F 14.0 °F 66% 30.15 in 10.0 mi WNW 15.0 mph - N/A   Overcast
6:35 AM 23.7 °F 10.5 °F 14.0 °F 66% 30.15 in 10.0 mi NW 16.1 mph - N/A   Overcast
6:55 AM 23.5 °F 9.4 °F 13.8 °F 66% 30.16 in 10.0 mi NW 18.4 mph - N/A   Overcast
7:15 AM 23.5 °F 9.9 °F 14.2 °F 67% 30.17 in 10.0 mi NW 17.3 mph - N/A   Overcast
7:35 AM 23.7 °F 11.0 °F 14.0 °F 66% 30.17 in 10.0 mi WNW 15.0 mph - N/A   Overcast
7:55 AM 23.4 °F 11.6 °F 14.4 °F 68% 30.17 in 10.0 mi WNW 12.7 mph - N/A   Overcast
8:15 AM 23.7 °F 12.6 °F 14.5 °F 68% 30.17 in 10.0 mi WNW 11.5 mph - N/A   Overcast
8:35 AM 23.5 °F 14.5 °F 14.7 °F 69% 30.17 in 10.0 mi West 8.1 mph - N/A   Overcast
8:55 AM 23.9 °F 15.8 °F 14.5 °F 67% 30.18 in 10.0 mi WSW 6.9 mph - N/A   Overcast
9:15 AM 24.8 °F 16.9 °F 15.1 °F 67% 30.17 in 10.0 mi WSW 6.9 mph - N/A   Overcast
9:35 AM 26.2 °F 18.6 °F 15.6 °F 64% 30.18 in 10.0 mi West 6.9 mph - N/A   Overcast
9:55 AM 27.3 °F 19.1 °F 16.2 °F 63% 30.18 in 10.0 mi West 8.1 mph - N/A   Overcast
10:15 AM 28.9 °F 17.3 °F 15.4 °F 57% 30.19 in 10.0 mi WNW 16.1 mph 20.7 mph N/A   Overcast
10:35 AM 29.3 °F 17.0 °F 15.8 °F 57% 30.19 in 10.0 mi NW 18.4 mph 24.2 mph N/A   Overcast
10:55 AM 30.0 °F 18.3 °F 16.0 °F 56% 30.18 in 10.0 mi NW 17.3 mph 25.3 mph N/A   Overcast
11:15 AM 30.9 °F 19.1 °F 16.2 °F 54% 30.18 in 10.0 mi NW 18.4 mph 26.5 mph N/A   Overcast
11:35 AM 31.8 °F 18.7 °F 15.4 °F 51% 30.17 in 10.0 mi NW 24.2 mph 28.8 mph N/A   Scattered Clouds
11:55 AM 32.5 °F 20.5 °F 15.8 °F 50% 30.16 in 10.0 mi NW 20.7 mph - N/A   Clear
12:15 PM 32.5 °F 21.9 °F 16.3 °F 51% 30.15 in 10.0 mi NW 16.1 mph 21.9 mph N/A   Clear
12:35 PM 32.9 °F 21.0 °F 15.8 °F 49% 30.15 in 10.0 mi NW 20.7 mph 24.2 mph N/A   Clear
12:55 PM 32.9 °F 21.6 °F 15.8 °F 49% 30.14 in 10.0 mi NW 18.4 mph - N/A   Clear
1:15 PM 33.3 °F 22.5 °F 14.4 °F 46% 30.13 in 10.0 mi NW 17.3 mph 21.9 mph N/A   Clear
1:35 PM 33.3 °F 21.5 °F 13.6 °F 44% 30.13 in 10.0 mi NW 20.7 mph 25.3 mph N/A   Clear
1:55 PM 33.8 °F 22.5 °F 14.4 °F 45% 30.13 in 10.0 mi NW 19.6 mph 25.3 mph N/A   Clear
2:15 PM 33.1 °F 21.2 °F 13.1 °F 44% 30.14 in 10.0 mi NW 20.7 mph - N/A   Scattered Clouds
2:35 PM 32.2 °F 19.4 °F 13.3 °F 46% 30.14 in 10.0 mi NW 23.0 mph - N/A   Clear
2:55 PM 32.0 °F 19.2 °F 12.0 °F 44% 30.15 in 10.0 mi NW 23.0 mph 28.8 mph N/A   Clear
3:15 PM 31.5 °F 17.4 °F 11.8 °F 44% 30.16 in 10.0 mi NW 27.6 mph 33.4 mph N/A   Clear
3:35 PM 30.6 °F 17.9 °F 12.4 °F 47% 30.16 in 10.0 mi NW 20.7 mph 26.5 mph N/A   Clear
3:55 PM 29.5 °F 17.2 °F 12.2 °F 49% 30.17 in 10.0 mi NW 18.4 mph 25.3 mph N/A   Clear
4:15 PM 28.0 °F 16.5 °F 12.7 °F 53% 30.18 in 10.0 mi North 15.0 mph - N/A   Clear
4:35 PM 23.7 °F 13.3 °F 16.2 °F 73% 30.19 in 10.0 mi North 10.4 mph - N/A   Clear
4:55 PM 20.7 °F 10.2 °F 14.9 °F 78% 30.19 in 10.0 mi NNW 9.2 mph - N/A   Clear
5:15 PM 18.9 °F 6.5 °F 13.8 °F 81% 30.19 in 10.0 mi North 11.5 mph - N/A   Clear
5:35 PM 18.3 °F 6.6 °F 12.7 °F 79% 30.18 in 10.0 mi NNW 10.4 mph - N/A   Clear
5:55 PM 18.0 °F 4.8 °F 12.0 °F 78% 30.19 in 10.0 mi NNW 12.7 mph - N/A   Clear
6:15 PM 20.7 °F 7.1 °F 10.2 °F 64% 30.19 in 10.0 mi NW 15.0 mph - N/A   Clear
6:35 PM 22.3 °F 8.2 °F 9.5 °F 58% 30.20 in 10.0 mi NW 17.3 mph - N/A   Clear
6:55 PM 23.0 °F 9.2 °F 9.1 °F 55% 30.20 in 10.0 mi NW 17.3 mph - N/A   Clear
7:15 PM 25.7 °F 11.2 °F 9.9 °F 51% 30.21 in 10.0 mi NW 21.9 mph 28.8 mph N/A   Mostly Cloudy
7:35 PM 25.3 °F 12.2 °F 10.6 °F 54% 30.22 in 10.0 mi NW 17.3 mph - N/A   Overcast
7:55 PM 24.6 °F 12.2 °F 10.4 °F 55% 30.22 in 10.0 mi NW 15.0 mph - N/A   Overcast
8:15 PM 23.2 °F 10.8 °F 10.9 °F 60% 30.22 in 10.0 mi NW 13.8 mph - N/A   Overcast
8:35 PM 21.4 °F 8.0 °F 10.4 °F 63% 30.23 in 10.0 mi NNW 15.0 mph - N/A   Scattered Clouds
8:55 PM 21.0 °F 7.1 °F 11.1 °F 66% 30.24 in 10.0 mi NNW 16.1 mph - N/A   Mostly Cloudy
9:15 PM 21.4 °F 8.0 °F 11.3 °F 65% 30.25 in 10.0 mi NNW 15.0 mph - N/A   Overcast
9:35 PM 23.0 °F 10.6 °F 11.7 °F 62% 30.26 in 10.0 mi NNW 13.8 mph 20.7 mph N/A   Overcast
9:55 PM 22.1 °F 12.0 °F 12.4 °F 66% 30.26 in 10.0 mi NNW 9.2 mph - N/A   Overcast
10:15 PM 21.6 °F 8.8 °F 13.1 °F 70% 30.26 in 10.0 mi NNW 13.8 mph - N/A   Overcast
10:35 PM 22.8 °F 9.9 °F 14.0 °F 69% 30.27 in 10.0 mi NNW 15.0 mph - N/A   Overcast
10:55 PM 22.8 °F 9.4 °F 13.3 °F 67% 30.28 in 10.0 mi NNW 16.1 mph - N/A   Overcast
11:15 PM 22.6 °F 10.1 °F 13.3 °F 67% 30.28 in 10.0 mi NNW 13.8 mph - N/A   Overcast
11:35 PM 22.1 °F 10.0 °F 13.3 °F 69% 30.28 in 10.0 mi North 12.7 mph - N/A   Overcast
11:55 PM 22.5 °F 10.5 °F 13.3 °F 68% 30.29 in 10.0 mi North 12.7 mph - N/A   Overcast